Location: Unspecified
(44.0704°N, 88.6889°W)
Time: 08:03:53
(UTC+02:00)

Okean 3 - Pass Details

Date: 30 March 2019
Orbit: 576 x 602 km, 82.5° (Epoch: 24 April)

Event Time Altitude Azimuth Distance (km) Brightness Sun altitude
Exits shadow 12:01:19 - 249° (WSW) 1,993 5.5 -7.7°
Reaches altitude 10° 12:01:30 10° 251° (WSW) 1,946 5.4 -7.7°
Maximum altitude 12:04:15 17° 291° (WNW) 1,569 5.2 -7.2°
Drops below altitude 10° 12:07:02 10° 331° (NNW) 1,954 6.0 -6.7°
Sets 12:09:59 0° 353° (N) 2,860 7.0 -6.2°
